Time,TemperatureF,DewpointF,PressureIn,WindDirection,WindDirectionDegrees,WindSpeedMPH,WindSpeedGustMPH,Humidity,HourlyPrecipIn,Conditions,Clouds,dailyrainin,SoftwareType,DateUTC
2013-04-13 14:01:00,76.5,52.9,29.98,ESE,112,10.0,10.0,44,0.00,,,0.00,WUHU21623XXSP,2013-04-13 19:01:00,
2013-04-13 14:10:00,76.5,52.9,29.97,ESE,112,8.0,8.0,44,0.00,,,0.00,WUHU21623XXSP,2013-04-13 19:10:00,
2013-04-13 14:11:00,76.5,52.9,29.97,ESE,112,8.0,8.0,44,0.00,,,0.00,WUHU21623XXSP,2013-04-13 19:11:00,
2013-04-13 14:16:00,76.6,53.0,29.97,SE,135,7.0,10.0,44,0.00,,,0.00,WUHU21623XXSP,2013-04-13 19:16:00,
2013-04-13 14:21:00,76.8,52.6,29.97,ESE,112,10.0,11.0,43,0.00,,,0.00,WUHU21623XXSP,2013-04-13 19:21:00,
2013-04-13 14:22:00,76.8,52.6,29.97,SSE,148,9.0,11.0,43,0.00,,,0.00,WUHU21623XXSP,2013-04-13 19:22:00,
2013-04-13 14:26:00,76.8,52.6,29.97,SE,139,8.0,11.0,43,0.00,,,0.00,WUHU21623XXSP,2013-04-13 19:26:00,
2013-04-13 14:27:00,76.8,52.6,29.97,SSE,149,8.0,11.0,43,0.00,,,0.00,WUHU21623XXSP,2013-04-13 19:27:00,
2013-04-13 14:28:00,77.2,52.9,29.96,SE,139,5.0,13.0,43,0.00,,,0.00,WUHU21623XXSP,2013-04-13 19:28:00,
2013-04-13 14:32:00,76.8,52.6,29.96,South,180,11.0,13.0,43,0.00,,,0.00,WUHU21623XXSP,2013-04-13 19:32:00,
2013-04-13 14:36:00,77.2,52.9,29.97,South,180,6.0,11.0,43,0.00,,,0.00,WUHU21623XXSP,2013-04-13 19:36:00,
2013-04-13 14:37:00,77.0,52.7,29.96,ESE,112,5.0,13.0,43,0.00,,,0.00,WUHU21623XXSP,2013-04-13 19:37:00,
2013-04-13 14:38:00,77.2,52.9,29.97,SSE,157,8.0,13.0,43,0.00,,,0.00,WUHU21623XXSP,2013-04-13 19:38:00,
2013-04-13 14:41:00,77.4,52.4,29.96,East,95,7.0,16.0,42,0.00,,,0.00,WUHU21623XXSP,2013-04-13 19:41:00,
2013-04-13 14:42:00,77.2,52.9,29.97,ESE,123,8.0,13.0,43,0.00,,,0.00,WUHU21623XXSP,2013-04-13 19:42:00,
2013-04-13 14:43:00,77.2,52.9,29.96,SSE,163,6.0,13.0,43,0.00,,,0.00,WUHU21623XXSP,2013-04-13 19:43:00,
2013-04-13 14:44:00,77.2,52.9,29.96,SE,135,8.0,13.0,43,0.00,,,0.00,WUHU21623XXSP,2013-04-13 19:44:00,
2013-04-13 14:46:00,77.4,52.4,29.96,SSE,157,7.0,16.0,42,0.00,,,0.00,WUHU21623XXSP,2013-04-13 19:46:00,
2013-04-13 14:47:00,77.2,52.9,29.96,South,169,5.0,11.0,43,0.00,,,0.00,WUHU21623XXSP,2013-04-13 19:47:00,
2013-04-13 14:49:00,77.2,52.9,29.96,ESE,112,16.0,16.0,43,0.00,,,0.00,WUHU21623XXSP,2013-04-13 19:49:00,
2013-04-13 14:51:00,77.4,52.4,29.96,SE,134,5.0,13.0,42,0.00,,,0.00,WUHU21623XXSP,2013-04-13 19:51:00,
2013-04-13 14:52:00,77.4,53.1,29.96,ESE,112,9.0,16.0,43,0.00,,,0.00,WUHU21623XXSP,2013-04-13 19:52:00,
2013-04-13 14:54:00,77.4,52.4,29.96,ESE,112,11.0,16.0,42,0.00,,,0.00,WUHU21623XXSP,2013-04-13 19:54:00,
2013-04-13 14:56:00,77.5,52.6,29.95,SSE,157,9.0,13.0,42,0.00,,,0.00,WUHU21623XXSP,2013-04-13 19:56:00,
2013-04-13 14:57:00,77.4,52.4,29.96,SSE,153,8.0,16.0,42,0.00,,,0.00,WUHU21623XXSP,2013-04-13 19:57:00,
2013-04-13 14:59:00,77.4,52.4,29.96,SE,141,7.0,13.0,42,0.00,,,0.00,WUHU21623XXSP,2013-04-13 19:59:00,
2013-04-13 15:02:00,77.5,52.6,29.96,East,90,10.0,13.0,42,0.00,,,0.00,WUHU21623XXSP,2013-04-13 20:02:00,
2013-04-13 15:04:00,77.5,52.6,29.96,ESE,113,9.0,13.0,42,0.00,,,0.00,WUHU21623XXSP,2013-04-13 20:04:00,
2013-04-13 15:05:00,77.5,52.6,29.96,ESE,113,8.0,13.0,42,0.00,,,0.00,WUHU21623XXSP,2013-04-13 20:05:00,
2013-04-13 15:07:00,77.5,52.6,29.95,SSE,168,5.0,13.0,42,0.00,,,0.00,WUHU21623XXSP,2013-04-13 20:07:00,
2013-04-13 15:08:00,77.7,52.8,29.94,SE,135,13.0,16.0,42,0.00,,,0.00,WUHU21623XXSP,2013-04-13 20:08:00,
2013-04-13 15:09:00,77.5,52.6,29.95,ESE,112,5.0,13.0,42,0.00,,,0.00,WUHU21623XXSP,2013-04-13 20:09:00,
2013-04-13 15:10:00,77.5,52.6,29.95,SE,135,10.0,13.0,42,0.00,,,0.00,WUHU21623XXSP,2013-04-13 20:10:00,
2013-04-13 15:11:00,77.7,52.2,29.94,ESE,123,9.0,16.0,41,0.00,,,0.00,WUHU21623XXSP,2013-04-13 20:11:00,
2013-04-13 15:13:00,77.7,52.8,29.95,SE,135,8.0,11.0,42,0.00,,,0.00,WUHU21623XXSP,2013-04-13 20:13:00,
2013-04-13 15:14:00,77.7,52.8,29.95,SSE,157,9.0,11.0,42,0.00,,,0.00,WUHU21623XXSP,2013-04-13 20:14:00,
2013-04-13 15:15:00,77.7,52.8,29.94,SE,135,6.0,12.0,42,0.00,,,0.00,WUHU21623XXSP,2013-04-13 20:15:00,
2013-04-13 15:16:00,77.7,52.2,29.94,SSE,152,6.0,16.0,41,0.00,,,0.00,WUHU21623XXSP,2013-04-13 20:16:00,
2013-04-13 15:17:00,77.7,52.2,29.94,SSE,157,6.0,16.0,41,0.00,,,0.00,WUHU21623XXSP,2013-04-13 20:17:00,
2013-04-13 15:19:00,77.7,52.7,29.94,ESE,123,8.0,16.0,42,0.00,,,0.00,WUHU21623XXSP,2013-04-13 20:19:00,
2013-04-13 15:21:00,77.9,52.3,29.94,ESE,112,12.0,16.0,41,0.00,,,0.00,WUHU21623XXSP,2013-04-13 20:21:00,
2013-04-13 15:24:00,77.9,52.3,29.94,SSE,148,6.0,16.0,41,0.00,,,0.00,WUHU21623XXSP,2013-04-13 20:24:00,
2013-04-13 15:26:00,78.1,52.5,29.94,ESE,122,9.0,15.0,41,0.00,,,0.00,WUHU21623XXSP,2013-04-13 20:26:00,
2013-04-13 15:27:00,77.7,52.2,29.94,SE,135,11.0,16.0,41,0.00,,,0.00,WUHU21623XXSP,2013-04-13 20:27:00,
2013-04-13 15:29:00,77.9,52.3,29.94,SSE,157,10.0,12.0,41,0.00,,,0.00,WUHU21623XXSP,2013-04-13 20:29:00,
2013-04-13 15:31:00,78.1,52.5,29.94,East,98,9.0,16.0,41,0.00,,,0.00,WUHU21623XXSP,2013-04-13 20:31:00,
2013-04-13 15:32:00,78.1,52.4,29.94,East,95,8.0,16.0,41,0.00,,,0.00,WUHU21623XXSP,2013-04-13 20:32:00,
2013-04-13 15:33:00,78.1,52.5,29.94,SSE,157,9.0,11.0,41,0.00,,,0.00,WUHU21623XXSP,2013-04-13 20:33:00,
2013-04-13 15:34:00,78.1,52.5,29.94,ESE,112,15.0,15.0,41,0.00,,,0.00,WUHU21623XXSP,2013-04-13 20:34:00,
2013-04-13 15:36:00,78.1,52.5,29.94,SE,135,5.0,16.0,41,0.00,,,0.00,WUHU21623XXSP,2013-04-13 20:36:00,
2013-04-13 15:38:00,78.1,52.5,29.94,SSE,160,7.0,15.0,41,0.00,,,0.00,WUHU21623XXSP,2013-04-13 20:38:00,
2013-04-13 15:39:00,78.1,52.5,29.94,ESE,112,5.0,15.0,41,0.00,,,0.00,WUHU21623XXSP,2013-04-13 20:39:00,
2013-04-13 15:40:00,78.1,52.5,29.94,East,90,14.0,15.0,41,0.00,,,0.00,WUHU21623XXSP,2013-04-13 20:40:00,
2013-04-13 15:43:00,78.1,52.5,29.94,ESE,117,9.0,16.0,41,0.00,,,0.00,WUHU21623XXSP,2013-04-13 20:43:00,
2013-04-13 15:44:00,78.1,52.5,29.94,SE,131,6.0,16.0,41,0.00,,,0.00,WUHU21623XXSP,2013-04-13 20:44:00,
2013-04-13 15:45:00,78.1,52.5,29.94,SE,135,10.0,16.0,41,0.00,,,0.00,WUHU21623XXSP,2013-04-13 20:45:00,
2013-04-13 15:46:00,78.1,52.5,29.93,SE,125,10.0,16.0,41,0.00,,,0.00,WUHU21623XXSP,2013-04-13 20:46:00,
2013-04-13 15:48:00,78.1,52.5,29.93,SE,140,7.0,16.0,41,0.00,,,0.00,WUHU21623XXSP,2013-04-13 20:48:00,
2013-04-13 15:52:00,78.1,52.5,29.94,SE,135,5.0,12.0,41,0.00,,,0.00,WUHU21623XXSP,2013-04-13 20:52:00,
2013-04-13 15:53:00,78.1,52.5,29.93,ESE,119,7.0,12.0,41,0.00,,,0.00,WUHU21623XXSP,2013-04-13 20:53:00,
2013-04-13 15:56:00,78.4,52.8,29.93,SE,124,6.0,11.0,41,0.00,,,0.00,WUHU21623XXSP,2013-04-13 20:56:00,
2013-04-13 15:57:00,78.1,52.5,29.93,ESE,119,10.0,16.0,41,0.00,,,0.00,WUHU21623XXSP,2013-04-13 20:57:00,
2013-04-13 15:59:00,78.3,52.6,29.93,East,90,9.0,16.0,41,0.00,,,0.00,WUHU21623XXSP,2013-04-13 20:59:00,
2013-04-13 16:01:00,78.3,52.0,29.92,SE,135,9.0,16.0,40,0.00,,,0.00,WUHU21623XXSP,2013-04-13 21:01:00,
2013-04-13 16:02:00,78.1,52.5,29.93,ESE,113,6.0,16.0,41,0.00,,,0.00,WUHU21623XXSP,2013-04-13 21:02:00,
2013-04-13 16:04:00,78.3,52.6,29.93,ESE,112,8.0,16.0,41,0.00,,,0.00,WUHU21623XXSP,2013-04-13 21:04:00,
2013-04-13 16:06:00,78.1,51.9,29.91,ESE,115,12.0,16.0,40,0.00,,,0.00,WUHU21623XXSP,2013-04-13 21:06:00,
2013-04-13 16:07:00,78.4,52.8,29.92,South,180,10.0,11.0,41,0.00,,,0.00,WUHU21623XXSP,2013-04-13 21:07:00,
2013-04-13 16:09:00,78.3,52.6,29.92,SE,138,7.0,11.0,41,0.00,,,0.00,WUHU21623XXSP,2013-04-13 21:09:00,
2013-04-13 16:12:00,78.1,52.5,29.92,SE,142,8.0,16.0,41,0.00,,,0.00,WUHU21623XXSP,2013-04-13 21:12:00,
2013-04-13 16:13:00,78.1,52.5,29.92,SE,142,7.0,16.0,41,0.00,,,0.00,WUHU21623XXSP,2013-04-13 21:13:00,
2013-04-13 16:14:00,78.3,52.6,29.92,SSE,149,6.0,16.0,41,0.00,,,0.00,WUHU21623XXSP,2013-04-13 21:14:00,
2013-04-13 16:16:00,78.1,51.9,29.91,SE,135,11.0,13.0,40,0.00,,,0.00,WUHU21623XXSP,2013-04-13 21:16:00,
2013-04-13 16:17:00,78.1,52.5,29.92,ESE,104,8.0,16.0,41,0.00,,,0.00,WUHU21623XXSP,2013-04-13 21:17:00,
2013-04-13 16:18:00,78.1,52.5,29.92,SSE,157,8.0,16.0,41,0.00,,,0.00,WUHU21623XXSP,2013-04-13 21:18:00,
2013-04-13 16:19:00,78.1,52.5,29.92,SE,135,8.0,16.0,41,0.00,,,0.00,WUHU21623XXSP,2013-04-13 21:19:00,
2013-04-13 16:21:00,78.1,51.9,29.91,ESE,117,8.0,13.0,40,0.00,,,0.00,WUHU21623XXSP,2013-04-13 21:21:00,
2013-04-13 16:23:00,78.1,51.9,29.91,ESE,112,10.0,15.0,40,0.00,,,0.00,WUHU21623XXSP,2013-04-13 21:23:00,
2013-04-13 16:24:00,78.1,51.9,29.91,SE,135,8.0,15.0,40,0.00,,,0.00,WUHU21623XXSP,2013-04-13 21:24:00,
2013-04-13 16:26:00,78.1,51.9,29.91,ESE,112,5.0,13.0,40,0.00,,,0.00,WUHU21623XXSP,2013-04-13 21:26:00,
2013-04-13 16:27:00,78.1,51.9,29.91,ESE,119,6.0,13.0,40,0.00,,,0.00,WUHU21623XXSP,2013-04-13 21:27:00,
2013-04-13 16:28:00,78.3,52.6,29.91,SE,135,10.0,13.0,41,0.00,,,0.00,WUHU21623XXSP,2013-04-13 21:28:00,
2013-04-13 16:29:00,78.1,52.5,29.91,ESE,120,7.0,13.0,41,0.00,,,0.00,WUHU21623XXSP,2013-04-13 21:29:00,
2013-04-13 16:31:00,78.1,51.9,29.90,ESE,112,6.0,13.0,40,0.00,,,0.00,WUHU21623XXSP,2013-04-13 21:31:00,
2013-04-13 16:33:00,78.1,51.9,29.91,ESE,112,10.0,13.0,40,0.00,,,0.00,WUHU21623XXSP,2013-04-13 21:33:00,
2013-04-13 16:34:00,78.1,51.9,29.91,SE,142,8.0,13.0,40,0.00,,,0.00,WUHU21623XXSP,2013-04-13 21:34:00,
2013-04-13 16:36:00,78.1,51.9,29.91,SE,131,7.0,13.0,40,0.00,,,0.00,WUHU21623XXSP,2013-04-13 21:36:00,
2013-04-13 16:38:00,78.1,51.9,29.91,SE,135,9.0,13.0,40,0.00,,,0.00,WUHU21623XXSP,2013-04-13 21:38:00,
2013-04-13 16:39:00,78.1,51.9,29.90,SE,144,7.0,13.0,40,0.00,,,0.00,WUHU21623XXSP,2013-04-13 21:39:00,
2013-04-13 16:41:00,78.1,51.9,29.91,SE,135,10.0,13.0,40,0.00,,,0.00,WUHU21623XXSP,2013-04-13 21:41:00,
2013-04-13 16:43:00,78.1,51.9,29.91,ESE,120,9.0,13.0,40,0.00,,,0.00,WUHU21623XXSP,2013-04-13 21:43:00,
2013-04-13 16:44:00,78.1,51.9,29.91,SE,129,8.0,13.0,40,0.00,,,0.00,WUHU21623XXSP,2013-04-13 21:44:00,
2013-04-13 16:45:00,78.1,51.9,29.91,ESE,112,9.0,13.0,40,0.00,,,0.00,WUHU21623XXSP,2013-04-13 21:45:00,
2013-04-13 16:46:00,78.1,51.9,29.91,SE,141,7.0,13.0,40,0.00,,,0.00,WUHU21623XXSP,2013-04-13 21:46:00,
2013-04-13 16:48:00,78.1,51.9,29.91,SE,134,9.0,13.0,40,0.00,,,0.00,WUHU21623XXSP,2013-04-13 21:48:00,
2013-04-13 16:49:00,78.1,51.9,29.91,SE,141,8.0,13.0,40,0.00,,,0.00,WUHU21623XXSP,2013-04-13 21:49:00,
2013-04-13 16:51:00,78.1,51.9,29.91,SE,133,8.0,13.0,40,0.00,,,0.00,WUHU21623XXSP,2013-04-13 21:51:00,
2013-04-13 16:52:00,78.1,51.9,29.90,SE,141,5.0,13.0,40,0.00,,,0.00,WUHU21623XXSP,2013-04-13 21:52:00,
2013-04-13 16:53:00,78.1,51.9,29.90,SE,136,10.0,13.0,40,0.00,,,0.00,WUHU21623XXSP,2013-04-13 21:53:00,
2013-04-13 16:55:00,78.1,51.9,29.90,SE,139,8.0,13.0,40,0.00,,,0.00,WUHU21623XXSP,2013-04-13 21:55:00,
2013-04-13 16:56:00,78.3,52.0,29.91,SSE,157,8.0,13.0,40,0.00,,,0.00,WUHU21623XXSP,2013-04-13 21:56:00,
2013-04-13 16:58:00,78.1,51.9,29.91,SSE,157,11.0,13.0,40,0.00,,,0.00,WUHU21623XXSP,2013-04-13 21:58:00,
2013-04-13 16:59:00,78.1,51.9,29.91,SE,135,12.0,13.0,40,0.00,,,0.00,WUHU21623XXSP,2013-04-13 21:59:00,
2013-04-13 17:00:00,78.1,51.9,29.90,SE,137,8.0,13.0,40,0.00,,,0.00,WUHU21623XXSP,2013-04-13 22:00:00,
2013-04-13 17:02:00,78.1,51.9,29.90,SE,141,5.0,13.0,40,0.00,,,0.00,WUHU21623XXSP,2013-04-13 22:02:00,
2013-04-13 17:03:00,78.1,51.9,29.90,South,180,13.0,13.0,40,0.00,,,0.00,WUHU21623XXSP,2013-04-13 22:03:00,
2013-04-13 17:04:00,78.1,51.9,29.90,SSW,202,13.0,13.0,40,0.00,,,0.00,WUHU21623XXSP,2013-04-13 22:04:00,
2013-04-13 17:05:00,78.1,51.9,29.90,SSE,162,8.0,13.0,40,0.00,,,0.00,WUHU21623XXSP,2013-04-13 22:05:00,
2013-04-13 17:06:00,78.1,51.1,29.89,SSE,158,6.0,13.0,39,0.00,,,0.00,WUHU21623XXSP,2013-04-13 22:06:00,
2013-04-13 17:07:00,78.1,51.9,29.90,ESE,107,7.0,13.0,40,0.00,,,0.00,WUHU21623XXSP,2013-04-13 22:07:00,
2013-04-13 17:09:00,78.1,51.9,29.89,SE,135,9.0,13.0,40,0.00,,,0.00,WUHU21623XXSP,2013-04-13 22:09:00,
2013-04-13 17:10:00,78.1,51.9,29.90,SE,135,11.0,13.0,40,0.00,,,0.00,WUHU21623XXSP,2013-04-13 22:10:00,
2013-04-13 17:12:00,78.1,51.1,29.90,SE,140,7.0,13.0,39,0.00,,,0.00,WUHU21623XXSP,2013-04-13 22:12:00,
2013-04-13 17:14:00,78.1,51.1,29.90,SSE,157,9.0,13.0,39,0.00,,,0.00,WUHU21623XXSP,2013-04-13 22:14:00,
2013-04-13 17:15:00,78.1,51.1,29.90,SSE,159,5.0,13.0,39,0.00,,,0.00,WUHU21623XXSP,2013-04-13 22:15:00,
2013-04-13 17:16:00,78.1,51.1,29.90,ESE,112,12.0,12.0,39,0.00,,,0.00,WUHU21623XXSP,2013-04-13 22:16:00,
2013-04-13 17:17:00,78.1,51.1,29.89,SE,141,7.0,13.0,39,0.00,,,0.00,WUHU21623XXSP,2013-04-13 22:17:00,
2013-04-13 17:19:00,78.1,51.1,29.90,SE,135,4.0,13.0,39,0.00,,,0.00,WUHU21623XXSP,2013-04-13 22:19:00,
2013-04-13 17:20:00,78.1,51.1,29.90,South,180,9.0,12.0,39,0.00,,,0.00,WUHU21623XXSP,2013-04-13 22:20:00,
2013-04-13 17:21:00,78.1,51.1,29.90,ESE,112,11.0,12.0,39,0.00,,,0.00,WUHU21623XXSP,2013-04-13 22:21:00,
2013-04-13 17:22:00,78.1,51.1,29.90,South,180,9.0,11.0,39,0.00,,,0.00,WUHU21623XXSP,2013-04-13 22:22:00,
2013-04-13 17:24:00,78.1,51.1,29.90,SSE,152,6.0,11.0,39,0.00,,,0.00,WUHU21623XXSP,2013-04-13 22:24:00,
2013-04-13 17:25:00,78.1,51.1,29.89,SSE,157,7.0,11.0,39,0.00,,,0.00,WUHU21623XXSP,2013-04-13 22:25:00,
2013-04-13 17:26:00,78.1,50.3,29.90,SSE,153,8.0,12.0,38,0.00,,,0.00,WUHU21623XXSP,2013-04-13 22:26:00,
2013-04-13 17:27:00,78.1,51.1,29.89,SE,135,4.0,22.0,39,0.00,,,0.00,WUHU21623XXSP,2013-04-13 22:27:00,
2013-04-13 17:28:00,78.1,50.3,29.89,SE,135,5.0,12.0,38,0.00,,,0.00,WUHU21623XXSP,2013-04-13 22:28:00,
2013-04-13 17:29:00,78.1,51.1,29.89,SSE,157,9.0,12.0,39,0.00,,,0.00,WUHU21623XXSP,2013-04-13 22:29:00,
2013-04-13 17:30:00,78.1,51.1,29.89,SSE,157,10.0,22.0,39,0.00,,,0.00,WUHU21623XXSP,2013-04-13 22:30:00,
2013-04-13 17:31:00,78.1,51.1,29.89,SE,133,6.0,11.0,39,0.00,,,0.00,WUHU21623XXSP,2013-04-13 22:31:00,
2013-04-13 17:32:00,78.1,50.3,29.89,SE,135,10.0,22.0,38,0.00,,,0.00,WUHU21623XXSP,2013-04-13 22:32:00,
2013-04-13 17:33:00,78.1,50.3,29.89,SSE,162,5.0,22.0,38,0.00,,,0.00,WUHU21623XXSP,2013-04-13 22:33:00,
2013-04-13 17:34:00,78.1,51.0,29.89,SSE,151,7.0,22.0,39,0.00,,,0.00,WUHU21623XXSP,2013-04-13 22:34:00,
2013-04-13 17:35:00,78.1,51.1,29.89,East,90,11.0,22.0,39,0.00,,,0.00,WUHU21623XXSP,2013-04-13 22:35:00,
2013-04-13 17:37:00,78.1,51.1,29.89,SE,141,4.0,22.0,39,0.00,,,0.00,WUHU21623XXSP,2013-04-13 22:37:00,
2013-04-13 17:38:00,78.1,51.1,29.89,SE,143,4.0,22.0,39,0.00,,,0.00,WUHU21623XXSP,2013-04-13 22:38:00,
2013-04-13 17:39:00,78.1,51.1,29.89,SE,135,9.0,11.0,39,0.00,,,0.00,WUHU21623XXSP,2013-04-13 22:39:00,
2013-04-13 17:40:00,78.1,51.1,29.89,SE,135,5.0,11.0,39,0.00,,,0.00,WUHU21623XXSP,2013-04-13 22:40:00,
2013-04-13 17:41:00,77.9,50.9,29.89,SSE,157,9.0,12.0,39,0.00,,,0.00,WUHU21623XXSP,2013-04-13 22:41:00,
2013-04-13 17:42:00,78.1,51.1,29.89,SSE,157,9.0,11.0,39,0.00,,,0.00,WUHU21623XXSP,2013-04-13 22:42:00,
2013-04-13 17:43:00,78.1,51.1,29.89,SSE,147,7.0,11.0,39,0.00,,,0.00,WUHU21623XXSP,2013-04-13 22:43:00,
2013-04-13 17:44:00,78.1,51.1,29.89,SE,132,5.0,11.0,39,0.00,,,0.00,WUHU21623XXSP,2013-04-13 22:44:00,
2013-04-13 17:45:00,78.1,51.1,29.89,SE,126,6.0,11.0,39,0.00,,,0.00,WUHU21623XXSP,2013-04-13 22:45:00,
2013-04-13 17:46:00,77.7,50.8,29.89,SSE,157,8.0,12.0,39,0.00,,,0.00,WUHU21623XXSP,2013-04-13 22:46:00,
2013-04-13 17:47:00,77.9,50.9,29.89,SE,129,9.0,12.0,39,0.00,,,0.00,WUHU21623XXSP,2013-04-13 22:47:00,
2013-04-13 17:48:00,77.9,50.9,29.89,ESE,123,7.0,12.0,39,0.00,,,0.00,WUHU21623XXSP,2013-04-13 22:48:00,
2013-04-13 17:49:00,77.9,50.9,29.89,SSE,157,6.0,12.0,39,0.00,,,0.00,WUHU21623XXSP,2013-04-13 22:49:00,
2013-04-13 17:50:00,77.9,50.8,29.89,SE,135,6.0,12.0,39,0.00,,,0.00,WUHU21623XXSP,2013-04-13 22:50:00,
2013-04-13 17:53:00,77.7,50.8,29.89,SSE,148,8.0,12.0,39,0.00,,,0.00,WUHU21623XXSP,2013-04-13 22:53:00,
2013-04-13 17:54:00,77.7,50.8,29.89,SSE,157,10.0,12.0,39,0.00,,,0.00,WUHU21623XXSP,2013-04-13 22:54:00,
2013-04-13 17:55:00,77.7,50.8,29.89,SSE,157,8.0,12.0,39,0.00,,,0.00,WUHU21623XXSP,2013-04-13 22:55:00,
2013-04-13 17:58:00,77.5,50.6,29.89,ESE,123,9.0,12.0,39,0.00,,,0.00,WUHU21623XXSP,2013-04-13 22:58:00,
2013-04-13 17:59:00,77.5,50.6,29.89,South,180,11.0,12.0,39,0.00,,,0.00,WUHU21623XXSP,2013-04-13 22:59:00,
2013-04-13 18:00:00,77.5,50.6,29.89,SE,142,6.0,12.0,39,0.00,,,0.00,WUHU21623XXSP,2013-04-13 23:00:00,
2013-04-13 18:01:00,77.2,50.3,29.89,SE,137,7.0,13.0,39,0.00,,,0.00,WUHU21623XXSP,2013-04-13 23:01:00,
2013-04-13 18:03:00,77.5,50.6,29.89,SSE,159,8.0,13.0,39,0.00,,,0.00,WUHU21623XXSP,2013-04-13 23:03:00,
2013-04-13 18:04:00,77.4,50.5,29.89,SSE,166,7.0,13.0,39,0.00,,,0.00,WUHU21623XXSP,2013-04-13 23:04:00,
2013-04-13 18:05:00,77.4,50.5,29.89,SSE,159,6.0,13.0,39,0.00,,,0.00,WUHU21623XXSP,2013-04-13 23:05:00,
2013-04-13 18:06:00,77.2,50.3,29.89,SSE,153,6.0,11.0,39,0.00,,,0.00,WUHU21623XXSP,2013-04-13 23:06:00,
2013-04-13 18:08:00,77.4,50.5,29.89,SSE,157,11.0,13.0,39,0.00,,,0.00,WUHU21623XXSP,2013-04-13 23:08:00,
2013-04-13 18:09:00,77.2,50.3,29.89,SSE,157,7.0,13.0,39,0.00,,,0.00,WUHU21623XXSP,2013-04-13 23:09:00,
2013-04-13 18:10:00,77.2,50.3,29.89,SE,146,7.0,13.0,39,0.00,,,0.00,WUHU21623XXSP,2013-04-13 23:10:00,
2013-04-13 18:11:00,77.0,50.1,29.89,SE,130,6.0,11.0,39,0.00,,,0.00,WUHU21623XXSP,2013-04-13 23:11:00,
2013-04-13 18:13:00,77.2,50.3,29.89,SE,134,6.0,11.0,39,0.00,,,0.00,WUHU21623XXSP,2013-04-13 23:13:00,
2013-04-13 18:14:00,77.2,50.3,29.89,SE,135,7.0,11.0,39,0.00,,,0.00,WUHU21623XXSP,2013-04-13 23:14:00,
2013-04-13 18:15:00,77.2,50.3,29.89,SSE,157,7.0,11.0,39,0.00,,,0.00,WUHU21623XXSP,2013-04-13 23:15:00,
2013-04-13 18:16:00,77.2,50.3,29.89,SSE,154,6.0,11.0,39,0.00,,,0.00,WUHU21623XXSP,2013-04-13 23:16:00,
2013-04-13 18:18:00,77.0,50.1,29.89,ESE,116,6.0,11.0,39,0.00,,,0.00,WUHU21623XXSP,2013-04-13 23:18:00,
2013-04-13 18:19:00,77.0,50.0,29.89,SE,125,7.0,11.0,39,0.00,,,0.00,WUHU21623XXSP,2013-04-13 23:19:00,
2013-04-13 18:20:00,77.0,50.1,29.89,SE,135,6.0,11.0,39,0.00,,,0.00,WUHU21623XXSP,2013-04-13 23:20:00,
2013-04-13 18:21:00,77.0,50.1,29.89,SSE,157,6.0,11.0,39,0.00,,,0.00,WUHU21623XXSP,2013-04-13 23:21:00,
2013-04-13 18:23:00,77.0,50.1,29.89,SE,137,4.0,11.0,39,0.00,,,0.00,WUHU21623XXSP,2013-04-13 23:23:00,
2013-04-13 18:24:00,77.0,50.1,29.89,SE,135,10.0,10.0,39,0.00,,,0.00,WUHU21623XXSP,2013-04-13 23:24:00,
2013-04-13 18:26:00,77.2,50.3,29.89,SE,137,8.0,10.0,39,0.00,,,0.00,WUHU21623XXSP,2013-04-13 23:26:00,
2013-04-13 18:29:00,77.2,50.3,29.89,SE,134,7.0,10.0,39,0.00,,,0.00,WUHU21623XXSP,2013-04-13 23:29:00,
2013-04-13 18:31:00,77.0,50.1,29.88,SE,128,9.0,13.0,39,0.00,,,0.00,WUHU21623XXSP,2013-04-13 23:31:00,
2013-04-13 18:32:00,77.2,50.3,29.88,SE,138,5.0,10.0,39,0.00,,,0.00,WUHU21623XXSP,2013-04-13 23:32:00,
2013-04-13 18:33:00,77.0,50.1,29.88,ESE,112,8.0,12.0,39,0.00,,,0.00,WUHU21623XXSP,2013-04-13 23:33:00,
2013-04-13 18:34:00,77.0,50.1,29.88,SSE,157,11.0,13.0,39,0.00,,,0.00,WUHU21623XXSP,2013-04-13 23:34:00,
2013-04-13 18:35:00,77.0,50.1,29.88,SE,135,9.0,13.0,39,0.00,,,0.00,WUHU21623XXSP,2013-04-13 23:35:00,
2013-04-13 18:37:00,77.0,50.1,29.89,ESE,112,10.0,13.0,39,0.00,,,0.00,WUHU21623XXSP,2013-04-13 23:37:00,
2013-04-13 18:39:00,77.0,50.1,29.88,SE,135,12.0,13.0,39,0.00,,,0.00,WUHU21623XXSP,2013-04-13 23:39:00,
2013-04-13 18:40:00,77.0,50.1,29.88,ESE,112,8.0,13.0,39,0.00,,,0.00,WUHU21623XXSP,2013-04-13 23:40:00,
2013-04-13 18:41:00,77.0,50.1,29.88,ESE,103,6.0,11.0,39,0.00,,,0.00,WUHU21623XXSP,2013-04-13 23:41:00,
2013-04-13 18:42:00,77.0,50.1,29.88,ESE,121,6.0,12.0,39,0.00,,,0.00,WUHU21623XXSP,2013-04-13 23:42:00,
2013-04-13 18:43:00,77.0,50.1,29.88,ESE,112,10.0,12.0,39,0.00,,,0.00,WUHU21623XXSP,2013-04-13 23:43:00,
2013-04-13 18:44:00,77.0,50.1,29.88,ESE,112,11.0,12.0,39,0.00,,,0.00,WUHU21623XXSP,2013-04-13 23:44:00,
2013-04-13 18:45:00,77.2,50.3,29.88,ESE,113,8.0,12.0,39,0.00,,,0.00,WUHU21623XXSP,2013-04-13 23:45:00,
2013-04-13 18:46:00,76.8,50.0,29.88,ESE,112,7.0,11.0,39,0.00,,,0.00,WUHU21623XXSP,2013-04-13 23:46:00,
2013-04-13 18:47:00,77.0,50.1,29.88,SE,139,6.0,12.0,39,0.00,,,0.00,WUHU21623XXSP,2013-04-13 23:47:00,
2013-04-13 18:49:00,76.8,50.0,29.88,SE,133,6.0,11.0,39,0.00,,,0.00,WUHU21623XXSP,2013-04-13 23:49:00,
2013-04-13 18:50:00,77.0,50.1,29.88,ESE,112,6.0,11.0,39,0.00,,,0.00,WUHU21623XXSP,2013-04-13 23:50:00,
2013-04-13 18:52:00,76.8,50.0,29.88,SE,135,8.0,11.0,39,0.00,,,0.00,WUHU21623XXSP,2013-04-13 23:52:00,
2013-04-13 18:54:00,76.8,50.0,29.88,ESE,123,6.0,11.0,39,0.00,,,0.00,WUHU21623XXSP,2013-04-13 23:54:00,
2013-04-13 18:56:00,76.8,50.0,29.88,ESE,112,7.0,11.0,39,0.00,,,0.00,WUHU21623XXSP,2013-04-13 23:56:00,
2013-04-13 18:57:00,76.8,50.0,29.88,ESE,112,6.0,11.0,39,0.00,,,0.00,WUHU21623XXSP,2013-04-13 23:57:00,
2013-04-13 18:59:00,76.8,50.0,29.88,SE,135,5.0,11.0,39,0.00,,,0.00,WUHU21623XXSP,2013-04-13 23:59:00,
2013-04-13 19:00:00,76.8,50.0,29.88,SE,137,5.0,11.0,39,0.00,,,0.00,WUHU21623XXSP,2013-04-14 00:00:00,
2013-04-13 19:01:00,76.8,50.0,29.88,ESE,112,8.0,10.0,39,0.00,,,0.00,WUHU21623XXSP,2013-04-14 00:01:00,
2013-04-13 19:03:00,76.8,50.0,29.88,ESE,112,8.0,11.0,39,0.00,,,0.00,WUHU21623XXSP,2013-04-14 00:03:00,
2013-04-13 19:04:00,76.8,50.0,29.88,ESE,123,7.0,10.0,39,0.00,,,0.00,WUHU21623XXSP,2013-04-14 00:04:00,
2013-04-13 19:05:00,76.8,50.0,29.88,ESE,122,6.0,10.0,39,0.00,,,0.00,WUHU21623XXSP,2013-04-14 00:05:00,
2013-04-13 19:06:00,76.8,50.0,29.88,ESE,102,4.0,10.0,39,0.00,,,0.00,WUHU21623XXSP,2013-04-14 00:06:00,
2013-04-13 19:08:00,76.8,50.0,29.88,ESE,112,9.0,10.0,39,0.00,,,0.00,WUHU21623XXSP,2013-04-14 00:08:00,
2013-04-13 19:09:00,76.8,50.0,29.88,ESE,123,7.0,10.0,39,0.00,,,0.00,WUHU21623XXSP,2013-04-14 00:09:00,
2013-04-13 19:10:00,76.8,50.0,29.88,ESE,122,7.0,10.0,39,0.00,,,0.00,WUHU21623XXSP,2013-04-14 00:10:00,
2013-04-13 19:11:00,76.8,50.0,29.88,ESE,116,6.0,10.0,39,0.00,,,0.00,WUHU21623XXSP,2013-04-14 00:11:00,
2013-04-13 19:12:00,76.6,50.6,29.88,SE,135,4.0,11.0,40,0.00,,,0.00,WUHU21623XXSP,2013-04-14 00:12:00,
2013-04-13 19:13:00,76.8,50.0,29.88,ESE,112,7.0,11.0,39,0.00,,,0.00,WUHU21623XXSP,2013-04-14 00:13:00,
2013-04-13 19:14:00,76.8,50.7,29.88,ESE,114,8.0,11.0,40,0.00,,,0.00,WUHU21623XXSP,2013-04-14 00:14:00,
2013-04-13 19:15:00,76.8,50.7,29.88,SE,135,10.0,11.0,40,0.00,,,0.00,WUHU21623XXSP,2013-04-14 00:15:00,
2013-04-13 19:16:00,76.8,50.7,29.88,ESE,110,9.0,11.0,40,0.00,,,0.00,WUHU21623XXSP,2013-04-14 00:16:00,
2013-04-13 19:18:00,76.8,50.7,29.88,ESE,112,9.0,11.0,40,0.00,,,0.00,WUHU21623XXSP,2013-04-14 00:18:00,
2013-04-13 19:19:00,76.8,50.7,29.88,ESE,106,5.0,11.0,40,0.00,,,0.00,WUHU21623XXSP,2013-04-14 00:19:00,
2013-04-13 19:20:00,76.6,50.6,29.88,ESE,109,4.0,11.0,40,0.00,,,0.00,WUHU21623XXSP,2013-04-14 00:20:00,
2013-04-13 19:21:00,76.6,50.6,29.88,SE,135,4.0,11.0,40,0.00,,,0.00,WUHU21623XXSP,2013-04-14 00:21:00,
2013-04-13 19:24:00,76.6,50.6,29.88,ESE,120,7.0,11.0,40,0.00,,,0.00,WUHU21623XXSP,2013-04-14 00:24:00,
2013-04-13 19:25:00,76.6,50.6,29.88,ESE,116,6.0,11.0,40,0.00,,,0.00,WUHU21623XXSP,2013-04-14 00:25:00,
2013-04-13 19:26:00,76.3,50.3,29.87,SE,135,7.0,11.0,40,0.00,,,0.00,WUHU21623XXSP,2013-04-14 00:26:00,
2013-04-13 19:27:00,76.6,50.6,29.88,ESE,112,5.0,11.0,40,0.00,,,0.00,WUHU21623XXSP,2013-04-14 00:27:00,
2013-04-13 19:29:00,76.5,50.4,29.88,ESE,112,9.0,11.0,40,0.00,,,0.00,WUHU21623XXSP,2013-04-14 00:29:00,
2013-04-13 19:30:00,76.6,50.6,29.88,ESE,112,9.0,11.0,40,0.00,,,0.00,WUHU21623XXSP,2013-04-14 00:30:00,
2013-04-13 19:31:00,76.1,50.1,29.87,East,100,5.0,10.0,40,0.00,,,0.00,WUHU21623XXSP,2013-04-14 00:31:00,
2013-04-13 19:32:00,76.5,50.4,29.88,ESE,112,10.0,11.0,40,0.00,,,0.00,WUHU21623XXSP,2013-04-14 00:32:00,
2013-04-13 19:34:00,76.3,50.3,29.88,ESE,111,6.0,11.0,40,0.00,,,0.00,WUHU21623XXSP,2013-04-14 00:34:00,
2013-04-13 19:35:00,76.3,50.3,29.88,ESE,111,5.0,11.0,40,0.00,,,0.00,WUHU21623XXSP,2013-04-14 00:35:00,
2013-04-13 19:36:00,76.3,50.3,29.87,ESE,114,5.0,11.0,40,0.00,,,0.00,WUHU21623XXSP,2013-04-14 00:36:00,
2013-04-13 19:37:00,76.3,50.3,29.87,SE,130,4.0,11.0,40,0.00,,,0.00,WUHU21623XXSP,2013-04-14 00:37:00,
2013-04-13 19:39:00,76.1,50.1,29.87,ESE,109,5.0,10.0,40,0.00,,,0.00,WUHU21623XXSP,2013-04-14 00:39:00,
2013-04-13 19:40:00,76.1,50.1,29.87,ESE,112,5.0,10.0,40,0.00,,,0.00,WUHU21623XXSP,2013-04-14 00:40:00,
2013-04-13 19:41:00,76.1,50.1,29.87,ESE,112,8.0,10.0,40,0.00,,,0.00,WUHU21623XXSP,2013-04-14 00:41:00,
2013-04-13 19:42:00,76.1,50.1,29.87,ESE,112,7.0,8.0,40,0.00,,,0.00,WUHU21623XXSP,2013-04-14 00:42:00,
2013-04-13 19:43:00,75.9,49.9,29.87,East,100,3.0,7.0,40,0.00,,,0.00,WUHU21623XXSP,2013-04-14 00:43:00,
2013-04-13 19:44:00,75.9,49.9,29.87,ESE,111,5.0,9.0,40,0.00,,,0.00,WUHU21623XXSP,2013-04-14 00:44:00,
2013-04-13 19:45:00,75.9,49.9,29.87,East,90,5.0,9.0,40,0.00,,,0.00,WUHU21623XXSP,2013-04-14 00:45:00,
2013-04-13 19:47:00,75.9,49.9,29.87,East,101,4.0,9.0,40,0.00,,,0.00,WUHU21623XXSP,2013-04-14 00:47:00,
2013-04-13 19:50:00,75.9,49.9,29.87,East,100,3.0,9.0,40,0.00,,,0.00,WUHU21623XXSP,2013-04-14 00:50:00,
2013-04-13 19:51:00,75.9,50.5,29.87,ESE,112,5.0,6.0,41,0.00,,,0.00,WUHU21623XXSP,2013-04-14 00:51:00,
2013-04-13 19:52:00,75.9,49.9,29.87,ESE,105,4.0,9.0,40,0.00,,,0.00,WUHU21623XXSP,2013-04-14 00:52:00,
2013-04-13 19:53:00,75.7,50.4,29.87,ESE,119,4.0,6.0,41,0.00,,,0.00,WUHU21623XXSP,2013-04-14 00:53:00,
2013-04-13 19:55:00,75.9,49.9,29.86,East,90,5.0,7.0,40,0.00,,,0.00,WUHU21623XXSP,2013-04-14 00:55:00,
2013-04-13 19:56:00,75.7,50.4,29.87,East,100,3.0,7.0,41,0.00,,,0.00,WUHU21623XXSP,2013-04-14 00:56:00,
2013-04-13 19:58:00,75.9,50.5,29.86,ESE,112,4.0,7.0,41,0.00,,,0.00,WUHU21623XXSP,2013-04-14 00:58:00,
2013-04-13 20:00:00,75.9,50.5,29.86,ENE,67,4.0,7.0,41,0.00,,,0.00,WUHU21623XXSP,2013-04-14 01:00:00,
2013-04-13 20:01:00,75.6,50.2,29.86,SE,135,4.0,8.0,41,0.00,,,0.00,WUHU21623XXSP,2013-04-14 01:01:00,
2013-04-13 20:03:00,75.7,50.4,29.87,ESE,119,4.0,6.0,41,0.00,,,0.00,WUHU21623XXSP,2013-04-14 01:03:00,
2013-04-13 20:05:00,75.7,50.4,29.87,ESE,107,4.0,7.0,41,0.00,,,0.00,WUHU21623XXSP,2013-04-14 01:05:00,
2013-04-13 20:06:00,75.4,50.1,29.87,ESE,112,4.0,8.0,41,0.00,,,0.00,WUHU21623XXSP,2013-04-14 01:06:00,
2013-04-13 20:07:00,75.4,50.1,29.87,ESE,107,4.0,8.0,41,0.00,,,0.00,WUHU21623XXSP,2013-04-14 01:07:00,
2013-04-13 20:08:00,75.7,50.4,29.87,East,100,4.0,8.0,41,0.00,,,0.00,WUHU21623XXSP,2013-04-14 01:08:00,
2013-04-13 20:09:00,75.4,50.1,29.87,East,90,6.0,10.0,41,0.00,,,0.00,WUHU21623XXSP,2013-04-14 01:09:00,
2013-04-13 20:10:00,75.6,50.2,29.86,East,90,4.0,8.0,41,0.00,,,0.00,WUHU21623XXSP,2013-04-14 01:10:00,
2013-04-13 20:11:00,75.4,50.1,29.87,ESE,112,5.0,10.0,41,0.00,,,0.00,WUHU21623XXSP,2013-04-14 01:11:00,
2013-04-13 20:12:00,75.6,50.2,29.87,SSE,157,3.0,8.0,41,0.00,,,0.00,WUHU21623XXSP,2013-04-14 01:12:00,
2013-04-13 20:14:00,75.6,50.2,29.86,ESE,114,3.0,8.0,41,0.00,,,0.00,WUHU21623XXSP,2013-04-14 01:14:00,
2013-04-13 20:15:00,75.4,50.1,29.87,ESE,112,6.0,8.0,41,0.00,,,0.00,WUHU21623XXSP,2013-04-14 01:15:00,
2013-04-13 20:16:00,75.0,49.7,29.86,ESE,117,3.0,10.0,41,0.00,,,0.00,WUHU21623XXSP,2013-04-14 01:16:00,
2013-04-13 20:17:00,75.4,50.1,29.87,ESE,112,7.0,8.0,41,0.00,,,0.00,WUHU21623XXSP,2013-04-14 01:17:00,
2013-04-13 20:19:00,75.4,50.1,29.87,East,99,6.0,10.0,41,0.00,,,0.00,WUHU21623XXSP,2013-04-14 01:19:00,
2013-04-13 20:20:00,75.4,50.1,29.87,ESE,107,4.0,10.0,41,0.00,,,0.00,WUHU21623XXSP,2013-04-14 01:20:00,
2013-04-13 20:22:00,75.4,50.1,29.87,ESE,120,5.0,10.0,41,0.00,,,0.00,WUHU21623XXSP,2013-04-14 01:22:00,
2013-04-13 20:24:00,75.2,49.9,29.87,ESE,112,4.0,10.0,41,0.00,,,0.00,WUHU21623XXSP,2013-04-14 01:24:00,
2013-04-13 20:25:00,75.0,49.7,29.86,SE,135,4.0,10.0,41,0.00,,,0.00,WUHU21623XXSP,2013-04-14 01:25:00,
2013-04-13 20:26:00,75.0,50.3,29.87,ESE,109,3.0,7.0,42,0.00,,,0.00,WUHU21623XXSP,2013-04-14 01:26:00,
2013-04-13 20:27:00,75.0,50.3,29.87,ESE,112,5.0,10.0,42,0.00,,,0.00,WUHU21623XXSP,2013-04-14 01:27:00,
2013-04-13 20:29:00,75.0,50.3,29.87,ESE,106,4.0,8.0,42,0.00,,,0.00,WUHU21623XXSP,2013-04-14 01:29:00,
2013-04-13 20:30:00,75.0,50.3,29.87,ESE,114,4.0,8.0,42,0.00,,,0.00,WUHU21623XXSP,2013-04-14 01:30:00,
2013-04-13 20:31:00,74.8,50.2,29.87,SE,135,3.0,7.0,42,0.00,,,0.00,WUHU21623XXSP,2013-04-14 01:31:00,
2013-04-13 20:33:00,75.0,50.3,29.86,ESE,121,5.0,7.0,42,0.00,,,0.00,WUHU21623XXSP,2013-04-14 01:33:00,
2013-04-13 20:35:00,75.0,50.3,29.87,ESE,110,4.0,7.0,42,0.00,,,0.00,WUHU21623XXSP,2013-04-14 01:35:00,
2013-04-13 20:36:00,75.0,50.3,29.87,ESE,115,3.0,7.0,42,0.00,,,0.00,WUHU21623XXSP,2013-04-14 01:36:00,
2013-04-13 20:38:00,75.0,50.3,29.87,ESE,122,4.0,7.0,42,0.00,,,0.00,WUHU21623XXSP,2013-04-14 01:38:00,
2013-04-13 20:40:00,75.0,50.3,29.87,ESE,106,4.0,7.0,42,0.00,,,0.00,WUHU21623XXSP,2013-04-14 01:40:00,
2013-04-13 20:41:00,74.8,50.2,29.87,ESE,110,3.0,7.0,42,0.00,,,0.00,WUHU21623XXSP,2013-04-14 01:41:00,
2013-04-13 20:43:00,74.8,50.2,29.87,SE,135,3.0,6.0,42,0.00,,,0.00,WUHU21623XXSP,2013-04-14 01:43:00,
2013-04-13 20:44:00,74.5,49.8,29.87,ESE,110,4.0,6.0,42,0.00,,,0.00,WUHU21623XXSP,2013-04-14 01:44:00,
2013-04-13 20:45:00,74.8,50.2,29.87,SE,135,6.0,6.0,42,0.00,,,0.00,WUHU21623XXSP,2013-04-14 01:45:00,
2013-04-13 20:46:00,74.8,50.2,29.87,ESE,121,5.0,6.0,42,0.00,,,0.00,WUHU21623XXSP,2013-04-14 01:46:00,
2013-04-13 20:48:00,74.8,50.2,29.87,ESE,112,4.0,6.0,42,0.00,,,0.00,WUHU21623XXSP,2013-04-14 01:48:00,
2013-04-13 20:50:00,74.7,50.0,29.87,ESE,112,5.0,6.0,42,0.00,,,0.00,WUHU21623XXSP,2013-04-14 01:50:00,
2013-04-13 20:51:00,74.7,50.0,29.87,SE,135,4.0,6.0,42,0.00,,,0.00,WUHU21623XXSP,2013-04-14 01:51:00,
2013-04-13 20:53:00,74.7,50.0,29.87,ESE,118,4.0,6.0,42,0.00,,,0.00,WUHU21623XXSP,2013-04-14 01:53:00,
2013-04-13 20:55:00,74.5,49.8,29.87,SE,135,4.0,7.0,42,0.00,,,0.00,WUHU21623XXSP,2013-04-14 01:55:00,
2013-04-13 20:56:00,74.5,50.4,29.87,ESE,123,4.0,7.0,43,0.00,,,0.00,WUHU21623XXSP,2013-04-14 01:56:00,
2013-04-13 20:58:00,74.5,50.4,29.87,SE,124,4.0,7.0,43,0.00,,,0.00,WUHU21623XXSP,2013-04-14 01:58:00,
2013-04-13 21:00:00,74.5,50.4,29.87,SE,135,5.0,7.0,43,0.00,,,0.00,WUHU21623XXSP,2013-04-14 02:00:00,
2013-04-13 21:02:00,74.5,50.4,29.87,ESE,119,4.0,7.0,43,0.00,,,0.00,WUHU21623XXSP,2013-04-14 02:02:00,
2013-04-13 21:03:00,74.5,50.4,29.87,SE,139,4.0,7.0,43,0.00,,,0.00,WUHU21623XXSP,2013-04-14 02:03:00,
2013-04-13 21:05:00,74.3,50.3,29.87,ESE,112,5.0,7.0,43,0.00,,,0.00,WUHU21623XXSP,2013-04-14 02:05:00,
2013-04-13 21:06:00,73.9,49.9,29.87,ESE,122,4.0,7.0,43,0.00,,,0.00,WUHU21623XXSP,2013-04-14 02:06:00,
2013-04-13 21:07:00,74.3,50.3,29.87,ESE,112,4.0,7.0,43,0.00,,,0.00,WUHU21623XXSP,2013-04-14 02:07:00,
2013-04-13 21:08:00,74.3,50.3,29.87,SE,125,4.0,7.0,43,0.00,,,0.00,WUHU21623XXSP,2013-04-14 02:08:00,
2013-04-13 21:09:00,73.9,49.9,29.87,SE,128,3.0,7.0,43,0.00,,,0.00,WUHU21623XXSP,2013-04-14 02:09:00,
2013-04-13 21:10:00,74.1,50.1,29.87,ESE,116,4.0,7.0,43,0.00,,,0.00,WUHU21623XXSP,2013-04-14 02:10:00,
2013-04-13 21:11:00,73.9,49.9,29.88,SE,139,2.0,7.0,43,0.00,,,0.00,WUHU21623XXSP,2013-04-14 02:11:00,
2013-04-13 21:12:00,74.1,50.1,29.87,ESE,120,4.0,7.0,43,0.00,,,0.00,WUHU21623XXSP,2013-04-14 02:12:00,
2013-04-13 21:13:00,74.1,50.1,29.87,SE,135,6.0,7.0,43,0.00,,,0.00,WUHU21623XXSP,2013-04-14 02:13:00,
2013-04-13 21:14:00,74.1,50.1,29.87,SE,130,4.0,7.0,43,0.00,,,0.00,WUHU21623XXSP,2013-04-14 02:14:00,
2013-04-13 21:16:00,73.9,49.9,29.87,ESE,121,4.0,7.0,43,0.00,,,0.00,WUHU21623XXSP,2013-04-14 02:16:00,
2013-04-13 21:18:00,74.1,50.1,29.87,SE,135,4.0,7.0,43,0.00,,,0.00,WUHU21623XXSP,2013-04-14 02:18:00,
2013-04-13 21:19:00,73.9,49.9,29.88,SE,128,3.0,7.0,43,0.00,,,0.00,WUHU21623XXSP,2013-04-14 02:19:00,
2013-04-13 21:21:00,73.9,49.9,29.88,SE,139,2.0,7.0,43,0.00,,,0.00,WUHU21623XXSP,2013-04-14 02:21:00,
2013-04-13 21:23:00,73.9,50.5,29.87,ESE,121,3.0,5.0,44,0.00,,,0.00,WUHU21623XXSP,2013-04-14 02:23:00,
2013-04-13 21:24:00,73.9,50.5,29.87,SE,135,4.0,5.0,44,0.00,,,0.00,WUHU21623XXSP,2013-04-14 02:24:00,
2013-04-13 21:26:00,73.9,50.5,29.88,ESE,121,5.0,6.0,44,0.00,,,0.00,WUHU21623XXSP,2013-04-14 02:26:00,
2013-04-13 21:28:00,73.9,50.5,29.88,ESE,118,5.0,9.0,44,0.00,,,0.00,WUHU21623XXSP,2013-04-14 02:28:00,
2013-04-13 21:29:00,73.9,50.5,29.88,SE,135,6.0,9.0,44,0.00,,,0.00,WUHU21623XXSP,2013-04-14 02:29:00,
2013-04-13 21:31:00,73.8,50.4,29.88,SE,135,5.0,9.0,44,0.00,,,0.00,WUHU21623XXSP,2013-04-14 02:31:00,
2013-04-13 21:33:00,73.8,50.4,29.88,SE,126,4.0,9.0,44,0.00,,,0.00,WUHU21623XXSP,2013-04-14 02:33:00,
2013-04-13 21:34:00,73.6,50.2,29.88,SE,127,4.0,9.0,44,0.00,,,0.00,WUHU21623XXSP,2013-04-14 02:34:00,
2013-04-13 21:37:00,73.6,50.2,29.88,SE,141,5.0,10.0,44,0.00,,,0.00,WUHU21623XXSP,2013-04-14 02:37:00,
2013-04-13 21:38:00,73.6,50.2,29.88,SE,136,4.0,10.0,44,0.00,,,0.00,WUHU21623XXSP,2013-04-14 02:38:00,
2013-04-13 21:39:00,73.6,50.2,29.88,SE,125,4.0,10.0,44,0.00,,,0.00,WUHU21623XXSP,2013-04-14 02:39:00,
2013-04-13 21:41:00,73.2,49.9,29.88,SSE,152,6.0,11.0,44,0.00,,,0.00,WUHU21623XXSP,2013-04-14 02:41:00,
2013-04-13 21:42:00,73.4,50.0,29.88,SE,139,4.0,10.0,44,0.00,,,0.00,WUHU21623XXSP,2013-04-14 02:42:00,
2013-04-13 21:43:00,73.2,49.9,29.89,SSE,157,7.0,10.0,44,0.00,,,0.00,WUHU21623XXSP,2013-04-14 02:43:00,
2013-04-13 21:44:00,73.2,49.9,29.89,SSE,157,6.0,10.0,44,0.00,,,0.00,WUHU21623XXSP,2013-04-14 02:44:00,
2013-04-13 21:48:00,73.2,49.9,29.89,SE,140,6.0,11.0,44,0.00,,,0.00,WUHU21623XXSP,2013-04-14 02:48:00,
2013-04-13 21:49:00,73.2,49.9,29.88,SE,135,7.0,11.0,44,0.00,,,0.00,WUHU21623XXSP,2013-04-14 02:49:00,
2013-04-13 21:52:00,72.9,49.5,29.88,SSE,148,6.0,22.0,44,0.00,,,0.00,WUHU21623XXSP,2013-04-14 02:52:00,
2013-04-13 21:53:00,73.2,49.9,29.88,SE,138,5.0,11.0,44,0.00,,,0.00,WUHU21623XXSP,2013-04-14 02:53:00,
2013-04-13 21:54:00,73.0,49.7,29.88,SE,134,4.0,11.0,44,0.00,,,0.00,WUHU21623XXSP,2013-04-14 02:54:00,
2013-04-13 21:56:00,72.7,48.8,29.88,SSE,153,7.0,22.0,43,0.00,,,0.00,WUHU21623XXSP,2013-04-14 02:56:00,
2013-04-13 21:58:00,73.0,49.7,29.88,SSE,153,9.0,22.0,44,0.00,,,0.00,WUHU21623XXSP,2013-04-14 02:58:00,
2013-04-13 21:59:00,73.0,49.7,29.88,SSE,151,10.0,22.0,44,0.00,,,0.00,WUHU21623XXSP,2013-04-14 02:59:00,
2013-04-13 22:00:00,73.0,49.7,29.88,SSE,149,11.0,22.0,44,0.00,,,0.00,WUHU21623XXSP,2013-04-14 03:00:00,
2013-04-13 22:01:00,72.7,49.4,29.88,SSE,157,9.0,11.0,44,0.00,,,0.00,WUHU21623XXSP,2013-04-14 03:01:00,
2013-04-13 22:04:00,72.9,49.5,29.88,SSE,157,7.0,22.0,44,0.00,,,0.00,WUHU21623XXSP,2013-04-14 03:04:00,
2013-04-13 22:05:00,72.9,49.5,29.88,SSE,157,8.0,22.0,44,0.00,,,0.00,WUHU21623XXSP,2013-04-14 03:05:00,
2013-04-13 22:06:00,72.5,49.2,29.88,ESE,112,5.0,11.0,44,0.00,,,0.00,WUHU21623XXSP,2013-04-14 03:06:00,
2013-04-13 22:09:00,72.7,48.8,29.88,SSE,154,6.0,13.0,43,0.00,,,0.00,WUHU21623XXSP,2013-04-14 03:09:00,
2013-04-13 22:10:00,72.7,48.8,29.88,SSE,157,6.0,11.0,43,0.00,,,0.00,WUHU21623XXSP,2013-04-14 03:10:00,
2013-04-13 22:11:00,72.3,49.1,29.88,SE,146,4.0,10.0,44,0.00,,,0.00,WUHU21623XXSP,2013-04-14 03:11:00,
2013-04-13 22:14:00,72.7,49.4,29.88,SSE,157,7.0,11.0,44,0.00,,,0.00,WUHU21623XXSP,2013-04-14 03:14:00,
2013-04-13 22:15:00,72.5,49.2,29.88,SSE,148,4.0,11.0,44,0.00,,,0.00,WUHU21623XXSP,2013-04-14 03:15:00,
2013-04-13 22:16:00,72.3,49.1,29.88,SE,131,4.0,10.0,44,0.00,,,0.00,WUHU21623XXSP,2013-04-14 03:16:00,
2013-04-13 22:19:00,72.5,49.2,29.88,SE,131,5.0,10.0,44,0.00,,,0.00,WUHU21623XXSP,2013-04-14 03:19:00,
2013-04-13 22:22:00,72.3,49.1,29.88,SE,146,4.0,10.0,44,0.00,,,0.00,WUHU21623XXSP,2013-04-14 03:22:00,
2013-04-13 22:24:00,72.3,49.1,29.88,SSE,157,5.0,10.0,44,0.00,,,0.00,WUHU21623XXSP,2013-04-14 03:24:00,
2013-04-13 22:26:00,72.1,48.9,29.88,SSE,157,7.0,9.0,44,0.00,,,0.00,WUHU21623XXSP,2013-04-14 03:26:00,
2013-04-13 22:27:00,72.3,49.1,29.88,SE,135,8.0,10.0,44,0.00,,,0.00,WUHU21623XXSP,2013-04-14 03:27:00,
2013-04-13 22:28:00,72.1,48.9,29.88,SSE,159,4.0,9.0,44,0.00,,,0.00,WUHU21623XXSP,2013-04-14 03:28:00,
2013-04-13 22:29:00,72.3,49.1,29.88,SE,136,6.0,8.0,44,0.00,,,0.00,WUHU21623XXSP,2013-04-14 03:29:00,
2013-04-13 22:31:00,72.1,48.9,29.88,SE,136,6.0,9.0,44,0.00,,,0.00,WUHU21623XXSP,2013-04-14 03:31:00,
2013-04-13 22:32:00,72.3,49.1,29.88,SE,135,7.0,8.0,44,0.00,,,0.00,WUHU21623XXSP,2013-04-14 03:32:00,
2013-04-13 22:33:00,72.3,49.1,29.88,SSE,151,5.0,9.0,44,0.00,,,0.00,WUHU21623XXSP,2013-04-14 03:33:00,
2013-04-13 22:34:00,72.3,49.1,29.88,SSE,163,5.0,9.0,44,0.00,,,0.00,WUHU21623XXSP,2013-04-14 03:34:00,
2013-04-13 22:37:00,72.3,49.1,29.88,SSE,164,6.0,9.0,44,0.00,,,0.00,WUHU21623XXSP,2013-04-14 03:37:00,
2013-04-13 22:38:00,72.1,48.9,29.88,SSE,159,4.0,9.0,44,0.00,,,0.00,WUHU21623XXSP,2013-04-14 03:38:00,
2013-04-13 22:39:00,72.1,48.9,29.88,SE,135,9.0,9.0,44,0.00,,,0.00,WUHU21623XXSP,2013-04-14 03:39:00,
2013-04-13 22:40:00,72.0,49.3,29.88,SE,134,6.0,9.0,45,0.00,,,0.00,WUHU21623XXSP,2013-04-14 03:40:00,
2013-04-13 22:41:00,72.0,48.7,29.88,SE,146,5.0,9.0,44,0.00,,,0.00,WUHU21623XXSP,2013-04-14 03:41:00,
2013-04-13 22:42:00,72.1,49.5,29.88,SSE,149,4.0,9.0,45,0.00,,,0.00,WUHU21623XXSP,2013-04-14 03:42:00,
2013-04-13 22:44:00,72.1,49.5,29.88,SE,138,4.0,9.0,45,0.00,,,0.00,WUHU21623XXSP,2013-04-14 03:44:00,
2013-04-13 22:47:00,72.0,49.3,29.88,SSE,149,6.0,9.0,45,0.00,,,0.00,WUHU21623XXSP,2013-04-14 03:47:00,
2013-04-13 22:49:00,72.0,49.3,29.88,SSE,157,9.0,9.0,45,0.00,,,0.00,WUHU21623XXSP,2013-04-14 03:49:00,
2013-04-13 22:50:00,72.0,49.3,29.88,SE,133,5.0,9.0,45,0.00,,,0.00,WUHU21623XXSP,2013-04-14 03:50:00,
2013-04-13 22:51:00,71.8,48.6,29.87,East,98,4.0,11.0,44,0.00,,,0.00,WUHU21623XXSP,2013-04-14 03:51:00,
2013-04-13 22:53:00,71.8,48.6,29.88,SSE,150,6.0,11.0,44,0.00,,,0.00,WUHU21623XXSP,2013-04-14 03:53:00,
2013-04-13 22:54:00,71.8,48.7,29.88,SSE,147,5.0,11.0,44,0.00,,,0.00,WUHU21623XXSP,2013-04-14 03:54:00,
2013-04-13 22:55:00,71.8,48.6,29.88,SSE,157,7.0,11.0,44,0.00,,,0.00,WUHU21623XXSP,2013-04-14 03:55:00,
2013-04-13 22:57:00,71.6,49.0,29.87,SE,134,6.0,10.0,45,0.00,,,0.00,WUHU21623XXSP,2013-04-14 03:57:00,
2013-04-13 22:58:00,71.8,48.6,29.87,SSE,152,4.0,11.0,44,0.00,,,0.00,WUHU21623XXSP,2013-04-14 03:58:00,
2013-04-13 22:59:00,71.8,48.6,29.87,ENE,67,8.0,11.0,44,0.00,,,0.00,WUHU21623XXSP,2013-04-14 03:59:00,
2013-04-13 23:00:00,71.8,49.2,29.87,ESE,112,4.0,11.0,45,0.00,,,0.00,WUHU21623XXSP,2013-04-14 04:00:00,
2013-04-13 23:01:00,71.4,48.8,29.87,SE,146,5.0,8.0,45,0.00,,,0.00,WUHU21623XXSP,2013-04-14 04:01:00,
2013-04-13 23:05:00,71.6,49.0,29.87,SE,136,4.0,10.0,45,0.00,,,0.00,WUHU21623XXSP,2013-04-14 04:05:00,
2013-04-13 23:10:00,71.4,48.8,29.87,SE,133,5.0,8.0,45,0.00,,,0.00,WUHU21623XXSP,2013-04-14 04:10:00,
2013-04-13 23:11:00,71.2,48.7,29.87,South,180,3.0,10.0,45,0.00,,,0.00,WUHU21623XXSP,2013-04-14 04:11:00,
2013-04-13 23:15:00,71.4,48.8,29.87,SSE,151,5.0,8.0,45,0.00,,,0.00,WUHU21623XXSP,2013-04-14 04:15:00,
2013-04-13 23:16:00,71.4,48.8,29.87,SSE,150,4.0,8.0,45,0.00,,,0.00,WUHU21623XXSP,2013-04-14 04:16:00,
2013-04-13 23:20:00,71.4,48.8,29.87,SSE,163,4.0,10.0,45,0.00,,,0.00,WUHU21623XXSP,2013-04-14 04:20:00,
2013-04-13 23:21:00,71.2,48.7,29.87,SE,143,5.0,8.0,45,0.00,,,0.00,WUHU21623XXSP,2013-04-14 04:21:00,
2013-04-13 23:22:00,71.2,48.7,29.88,SSE,157,5.0,10.0,45,0.00,,,0.00,WUHU21623XXSP,2013-04-14 04:22:00,
2013-04-13 23:23:00,71.2,48.7,29.87,South,177,6.0,11.0,45,0.00,,,0.00,WUHU21623XXSP,2013-04-14 04:23:00,
2013-04-13 23:25:00,71.2,48.7,29.87,East,90,7.0,10.0,45,0.00,,,0.00,WUHU21623XXSP,2013-04-14 04:25:00,
2013-04-13 23:27:00,71.2,48.7,29.87,South,180,7.0,10.0,45,0.00,,,0.00,WUHU21623XXSP,2013-04-14 04:27:00,
2013-04-13 23:30:00,71.2,48.7,29.87,SSE,153,6.0,10.0,45,0.00,,,0.00,WUHU21623XXSP,2013-04-14 04:30:00,
2013-04-13 23:31:00,71.2,48.7,29.87,South,180,4.0,11.0,45,0.00,,,0.00,WUHU21623XXSP,2013-04-14 04:31:00,
2013-04-13 23:32:00,71.2,48.7,29.87,SSE,154,5.0,8.0,45,0.00,,,0.00,WUHU21623XXSP,2013-04-14 04:32:00,
2013-04-13 23:34:00,71.2,48.7,29.87,SSE,158,3.0,6.0,45,0.00,,,0.00,WUHU21623XXSP,2013-04-14 04:34:00,
2013-04-13 23:35:00,71.2,48.7,29.87,SSE,161,5.0,11.0,45,0.00,,,0.00,WUHU21623XXSP,2013-04-14 04:35:00,
2013-04-13 23:36:00,71.2,48.7,29.87,SSE,151,4.0,6.0,45,0.00,,,0.00,WUHU21623XXSP,2013-04-14 04:36:00,
2013-04-13 23:37:00,71.2,48.7,29.87,South,180,6.0,11.0,45,0.00,,,0.00,WUHU21623XXSP,2013-04-14 04:37:00,
2013-04-13 23:40:00,71.2,48.7,29.87,SSE,160,3.0,11.0,45,0.00,,,0.00,WUHU21623XXSP,2013-04-14 04:40:00,
2013-04-13 23:41:00,71.2,48.7,29.87,South,180,4.0,11.0,45,0.00,,,0.00,WUHU21623XXSP,2013-04-14 04:41:00,
2013-04-13 23:42:00,71.2,48.7,29.87,SSE,158,3.0,7.0,45,0.00,,,0.00,WUHU21623XXSP,2013-04-14 04:42:00,
2013-04-13 23:45:00,71.1,48.5,29.87,SSE,149,4.0,6.0,45,0.00,,,0.00,WUHU21623XXSP,2013-04-14 04:45:00,
2013-04-13 23:46:00,71.2,48.7,29.87,SSE,157,5.0,6.0,45,0.00,,,0.00,WUHU21623XXSP,2013-04-14 04:46:00,
2013-04-13 23:48:00,71.1,48.5,29.87,SSE,155,4.0,6.0,45,0.00,,,0.00,WUHU21623XXSP,2013-04-14 04:48:00,
2013-04-13 23:50:00,71.1,48.5,29.87,SSE,157,6.0,6.0,45,0.00,,,0.00,WUHU21623XXSP,2013-04-14 04:50:00,
2013-04-13 23:51:00,70.7,48.2,29.87,SE,142,3.0,5.0,45,0.00,,,0.00,WUHU21623XXSP,2013-04-14 04:51:00,
2013-04-13 23:56:00,70.7,48.2,29.86,SSE,161,5.0,9.0,45,0.00,,,0.00,WUHU21623XXSP,2013-04-14 04:56:00,